Torna al catalogo

STARLINK-32762

AttivoComunicazioniVLEO
NORAD 62748·PAYLOAD·🇺🇸 United States

Lanciato Jan 21, 2025 da Cape Canaveral Space Force Station

Loading…

Prossimi Passaggi (prossime 24 ore)

TLE

AggiornatoSource: CelesTrak SupGP

Epoca: Sep 14, 2026, 14:57 UTC

1 62748C 25014P   26257.62340278  .00040688  00000+0  14738-2 0  2570
2 62748  43.0028 170.6531 0001496 258.4025 137.3894 15.27555490    14

Traccia STARLINK-32762 in tempo reale con AllMySat

Download on the App Store